[[{"header":{"parameterUnit":"m.s-1","parameterCategory":1,"la1":30.2991,"la2":30.254,"lo1":-89.0895,"lo2":-89.0444,"dy":0.0017,"dx":0.0017,"nx":28,"ny":28,"refTime":"2025-09-13T03:00:00:Z","depth":0,"parameterNumber":2,"parameterNumberName":"U-component_of_WINDS"},"data":[0,0,0,0,0,0,0,0,0,0,0,0,0,0,0,0,0,0,0,0,0,0,0,0,0,0,0,0,0,0,0,0,0,0,0,0,0,0,0,0,0,0,0,0,0,0,0,0,0,0,0,0,0,0,0,0,0,0,-0.8232,-0.8232,0,-0.8245,-0.8245,-0.8245,-0.8224,-0.8223,-0.8222,-0.8222,-0.8235,-0.8236,-0.8237,0,0,0,0,0,0,0,0,0,0,0,0,0,-0.819,-0.8191,-0.8232,-0.8232,-0.8232,-0.8245,-0.8245,-0.8245,-0.8224,-0.8223,-0.8222,-0.8221,-0.8235,-0.8236,-0.8237,0,0,0,0,0,0,0,0,0,0,0,0,0,-0.8206,-0.8191,-0.8232,-0.8223,-0.8223,-0.8245,-0.8245,-0.8245,-0.8224,-0.8223,-0.8222,-0.8221,-0.8234,-0.8236,-0.8237,-0.8269,0,0,-0.8242,-0.8243,0,0,0,0,0,0,0,0,-0.8205,-0.8208,-0.8224,-0.8224,-0.8223,-0.8232,-0.8235,-0.8253,-0.8224,-0.8224,-0.8222,-0.822,-0.8235,-0.8236,-0.8241,-0.8269,-0.827,-0.8242,-0.8243,-0.8244,-0.8244,0,0,0,0,0,0,0,-0.8204,-0.8207,-0.8237,-0.8225,-0.8224,-0.8219,-0.822,-0.8238,-0.8235,-0.8224,-0.8222,-0.8224,-0.8234,-0.824,-0.8241,-0.827,-0.8242,-0.8244,-0.8245,-0.8245,-0.8325,-0.8326,0,0,0,0,0,0,-0.8204,-0.8206,-0.8237,-0.8238,-0.8211,-0.8221,-0.8222,-0.823,-0.8235,-0.8235,-0.8225,-0.8223,-0.8237,-0.8239,-0.8242,-0.8279,-0.8244,-0.8245,-0.8246,-0.8324,-0.8325,-0.8326,0,0,0,0,0,0,-0.8203,-0.8207,-0.8236,-0.8222,-0.8225,-0.8222,-0.8232,-0.8231,-0.8236,-0.8236,-0.8235,-0.8231,-0.8237,-0.8239,-0.8262,-0.8279,-0.8246,-0.8247,-0.8322,-0.8324,-0.8326,-0.8353,0,0,0,0,0,0,-0.8202,-0.8207,-0.8219,-0.8222,-0.8226,-0.8257,-0.8233,-0.8232,-0.8239,-0.8236,-0.8241,-0.8241,-0.8236,-0.826,-0.8264,-0.828,-0.8249,-0.8321,-0.8323,-0.8325,-0.8351,-0.8356,-0.836,0,0,0,0,0,-0.8201,-0.8226,-0.8219,-0.8223,-0.824,-0.8258,-0.826,-0.8253,-0.824,-0.8252,-0.8252,-0.8241,-0.8276,-0.8262,-0.8266,-0.8284,-0.832,-0.8322,-0.8325,-0.8349,-0.8355,-0.836,0,0,0,0,0,0,-0.8225,-0.8226,-0.8219,-0.8246,-0.8252,-0.8254,-0.8269,-0.826,-0.827,-0.8267,-0.8259,-0.826,-0.8285,-0.8286,-0.8271,-0.8315,-0.8296,-0.8299,-0.8313,-0.8318,-0.8323,-0.8322,-0.825,0,0,0,0,0,-0.8234,-0.8247,-0.8248,-0.8271,-0.8275,-0.8271,-0.8279,-0.8273,-0.8279,-0.8281,-0.8283,-0.8289,-0.8301,-0.831,-0.8321,-0.8351,-0.8352,-0.8365,-0.8369,-0.8373,-0.8377,-0.8393,-0.8399,-0.8335,-0.8335,-0.8335,0,0,-0.8251,-0.8254,-0.8263,-0.8276,-0.828,-0.8295,-0.8274,-0.829,-0.8301,-0.8284,-0.8305,-0.8307,-0.8313,-0.8339,-0.8351,-0.8342,-0.8394,-0.8377,-0.838,-0.8381,-0.8396,-0.8402,-0.8407,-0.8337,-0.8337,-0.8336,0,0,-0.8291,-0.8294,-0.8315,-0.8319,-0.8325,-0.8322,-0.8327,-0.8331,-0.8331,-0.8352,-0.834,-0.8353,-0.8374,-0.8379,-0.8385,-0.8426,-0.8417,-0.843,-0.8454,-0.847,-0.8475,-0.8479,-0.8495,-0.85,-0.8433,-0.8434,-0.8434,0,-0.8313,-0.8334,-0.8326,-0.8343,-0.835,-0.8335,-0.8356,-0.836,-0.837,-0.8374,-0.8364,-0.8391,-0.8394,-0.8421,-0.8431,-0.8436,-0.8442,-0.843,-0.8475,-0.8479,-0.8483,-0.8498,-0.8503,-0.8435,-0.8435,-0.8435,-0.8435,0,-0.836,-0.8375,-0.8391,-0.84,-0.8408,-0.8427,-0.8422,-0.8432,-0.8425,-0.8424,-0.8446,-0.8449,-0.8461,-0.8467,-0.8461,-0.8494,-0.8488,-0.8476,-0.8457,-0.8491,-0.8504,-0.851,-0.8438,-0.8437,-0.8437,-0.8436,0,0,-0.8416,-0.8421,-0.8427,-0.8431,-0.8437,-0.8448,-0.8466,-0.8478,-0.8486,-0.8493,-0.8508,-0.8526,-0.8516,-0.8522,-0.8516,-0.853,-0.8563,-0.8516,-0.8516,-0.8525,-0.8599,-0.8609,-0.8615,-0.8556,-0.8557,-0.8558,-0.8599,0,-0.8457,-0.8488,-0.8481,-0.8512,-0.8526,-0.8511,-0.8527,-0.8532,-0.8532,-0.8543,-0.8542,-0.8556,-0.854,-0.8544,-0.8557,-0.8556,-0.8578,-0.8553,-0.8571,-0.8571,-0.857,-0.8622,-0.8632,-0.867,-0.8604,-0.8605,-0.8606,0,-0.8508,-0.8516,-0.8548,-0.8552,-0.8557,-0.8571,-0.8581,-0.8593,-0.8598,-0.8596,-0.8603,-0.8595,-0.8613,-0.8594,-0.8619,-0.8602,-0.8609,-0.861,-0.8611,-0.8613,-0.8591,-0.8626,-0.8682,-0.8688,-0.8614,-0.8613,-0.8612,0,-0.8546,-0.8566,-0.8587,-0.8591,-0.8595,-0.8606,-0.8608,-0.8612,-0.862,-0.8628,-0.8633,-0.8644,-0.865,-0.8658,-0.8653,-0.864,-0.8679,-0.8659,-0.8679,-0.8679,-0.8688,-0.8688,-0.8747,-0.8692,-0.8692,-0.8692,-0.8692,0,-0.8592,-0.8612,-0.8605,-0.8618,-0.8641,-0.8633,-0.8655,-0.8656,-0.866,-0.8673,-0.8661,-0.8674,-0.8666,-0.8679,-0.8675,-0.8696,-0.8699,-0.8698,-0.8697,-0.87,-0.87,-0.8704,-0.8702,-0.8693,-0.8693,-0.8693,-0.8692,0,-0.8639,-0.8635,-0.8658,-0.8659,-0.866,-0.8677,-0.8678,-0.8691,-0.8689,-0.8706,-0.871,-0.8707,-0.8721,-0.8716,-0.8731,-0.8728,-0.8756,-0.8751,-0.8754,-0.8753,-0.8773,-0.8771,-0.8838,-0.8846,-0.8785,-0.8785,-0.8786,0,-0.8669,-0.8684,-0.8687,-0.8695,-0.8698,-0.8712,-0.8719,-0.8711,-0.872,-0.8727,-0.8739,-0.8751,-0.8761,-0.8784,-0.8783,-0.8795,-0.879,-0.8813,-0.8792,-0.8794,-0.8791,-0.879,-0.8792,-0.8817,-0.8818,-0.8818,-0.8819,0,-0.8722,-0.8719,-0.873,-0.8741,-0.875,-0.8757,-0.8764,-0.8771,-0.8764,-0.8774,-0.8788,-0.8796,-0.8811,-0.8824,-0.8834,-0.8836,-0.8827,-0.8825,-0.883,-0.8834,-0.8835,-0.8835,-0.8766,-0.8824,-0.8823,-0.8823,-0.8823,-0.8823,-0.8762,-0.8775,-0.8779,-0.8792,-0.8796,-0.8803,-0.8815,-0.8814,-0.8825,-0.8837,-0.8832,-0.8848,-0.8853,-0.8865,-0.8869,-0.8882,-0.8873,-0.888,-0.8882,-0.8885,-0.8887,-0.8832,-0.8883,-0.8883,-0.8883,-0.8883,-0.8883,0,-0.8816,-0.8818,-0.8829,-0.8839,-0.8849,-0.8838,-0.8845,-0.8854,-0.8868,-0.8874,-0.8883,-0.8899,-0.8912,-0.8912,-0.8923,-0.8933,-0.8929,-0.8936,-0.8936,-0.8937,-0.8894,-0.8889,-0.894,-0.894,-0.894,-0.894,-0.894,-0.894,-0.8845,-0.8866,-0.8864,-0.8887,-0.8889,-0.8904,-0.8909,-0.8915,-0.8919,-0.8938,-0.8948,-0.8947,-0.8951,-0.8962,-0.8973,-0.8973,-0.8978,-0.8987,-0.8985,-0.8945,-0.894,-0.8934,-0.8929,-0.8988,-0.8988,-0.9027,-0.9027,-0.9027]},{"header":{"parameterUnit":"m.s-1","parameterCategory":1,"la1":30.2991,"la2":30.254,"lo1":-89.0895,"lo2":-89.0444,"dy":0.0017,"dx":0.0017,"nx":28,"ny":28,"refTime":"2025-09-13T03:00:00:Z","depth":0,"parameterNumber":3,"parameterNumberName":"V-component_of_WINDS"},"data":[0,0,0,0,0,0,0,0,0,0,0,0,0,0,0,0,0,0,0,0,0,0,0,0,0,0,0,0,0,0,0,0,0,0,0,0,0,0,0,0,0,0,0,0,0,0,0,0,0,0,0,0,0,0,0,0,0,0,1.0912,1.0911,0,1.0808,1.0807,1.0806,1.0741,1.0741,1.074,1.074,1.0629,1.0627,1.0624,0,0,0,0,0,0,0,0,0,0,0,0,0,1.1049,1.1047,1.0912,1.0911,1.091,1.0808,1.0807,1.0806,1.0741,1.0741,1.074,1.074,1.063,1.0627,1.0624,0,0,0,0,0,0,0,0,0,0,0,0,0,1.0972,1.1046,1.0912,1.0865,1.086,1.0809,1.0807,1.0805,1.0741,1.0741,1.074,1.074,1.0631,1.0627,1.0623,1.061,0,0,1.0611,1.061,0,0,0,0,0,0,0,0,1.0976,1.0967,1.0874,1.0869,1.0863,1.0787,1.0815,1.0739,1.0741,1.0786,1.074,1.0739,1.0682,1.0674,1.0655,1.0604,1.06,1.0611,1.0609,1.0607,1.0606,0,0,0,0,0,0,0,1.0982,1.0971,1.0871,1.0872,1.0866,1.0848,1.0836,1.08,1.0738,1.0782,1.0777,1.0766,1.0679,1.0659,1.0652,1.0598,1.0611,1.0608,1.0605,1.0604,1.0528,1.0528,0,0,0,0,0,0,1.0995,1.0976,1.0874,1.0868,1.092,1.0846,1.0833,1.0812,1.0738,1.0727,1.0767,1.0763,1.0666,1.0657,1.0648,1.0625,1.0607,1.0603,1.0601,1.0527,1.0528,1.0528,0,0,0,0,0,0,1.0999,1.0987,1.0878,1.0921,1.0905,1.0844,1.0821,1.081,1.079,1.0727,1.0715,1.0759,1.0665,1.0654,1.0619,1.0621,1.0602,1.0598,1.0527,1.0527,1.0528,1.0581,0,0,0,0,0,0,1.1003,1.0989,1.0984,1.0921,1.0903,1.0853,1.0821,1.0808,1.0784,1.0779,1.0716,1.0705,1.0664,1.0626,1.0615,1.0615,1.0595,1.0526,1.0527,1.0528,1.0579,1.0584,1.0587,0,0,0,0,0,1.1008,1.1003,1.0984,1.0972,1.0897,1.0854,1.0843,1.0798,1.0785,1.0779,1.0737,1.0707,1.0622,1.0623,1.0611,1.0609,1.0526,1.0527,1.0528,1.0577,1.0583,1.0587,0,0,0,0,0,0,1.1067,1.0994,1.0972,1.0947,1.0907,1.0843,1.0834,1.0806,1.0768,1.0764,1.0708,1.0694,1.0665,1.0633,1.0635,1.059,1.057,1.0569,1.0612,1.0617,1.0621,1.0629,1.0592,0,0,0,0,0,1.1077,1.105,1.0987,1.097,1.0951,1.0896,1.0876,1.0844,1.08,1.0783,1.0739,1.0696,1.0659,1.0636,1.0599,1.0574,1.0558,1.0567,1.0571,1.0575,1.0574,1.0556,1.0559,1.0531,1.0531,1.0531,0,0,1.1097,1.1054,1.104,1.0981,1.0946,1.0917,1.0883,1.0854,1.0831,1.0778,1.0743,1.0709,1.0657,1.0627,1.0611,1.06,1.0578,1.0576,1.0579,1.0576,1.0557,1.056,1.0562,1.0531,1.0531,1.0531,0,0,1.1119,1.1085,1.1067,1.1033,1.0981,1.0944,1.094,1.0879,1.0855,1.0819,1.0778,1.0749,1.0688,1.0653,1.0626,1.0633,1.0603,1.0623,1.0644,1.0627,1.063,1.0631,1.0632,1.0634,1.0622,1.0622,1.0622,0,1.1151,1.1108,1.106,1.1034,1.1008,1.0959,1.0939,1.0908,1.0846,1.0829,1.0817,1.0738,1.0699,1.0659,1.0661,1.0642,1.0634,1.063,1.0633,1.0635,1.0635,1.0636,1.0636,1.0625,1.0624,1.0624,1.0624,0,1.1148,1.1118,1.1109,1.1052,1.1025,1.1002,1.0949,1.0928,1.0898,1.0862,1.0825,1.0777,1.0728,1.0717,1.0687,1.0672,1.0666,1.0645,1.0623,1.0642,1.0641,1.0641,1.0629,1.0628,1.0627,1.0626,0,0,1.1205,1.1121,1.1119,1.1091,1.103,1.1005,1.0979,1.0932,1.0914,1.0873,1.0848,1.0796,1.0776,1.0746,1.0712,1.0697,1.0704,1.0677,1.0675,1.0683,1.0682,1.0698,1.0699,1.0684,1.0683,1.0683,1.0686,0,1.1217,1.1169,1.1125,1.1092,1.1063,1.1015,1.0991,1.095,1.0915,1.0884,1.0844,1.0808,1.0785,1.0766,1.075,1.0707,1.0703,1.0706,1.0658,1.0657,1.0672,1.0699,1.0716,1.0721,1.0685,1.0685,1.0685,0,1.1226,1.1187,1.1152,1.1092,1.1078,1.1058,1.1011,1.0982,1.0933,1.0908,1.0875,1.0839,1.0806,1.0788,1.0742,1.0745,1.0722,1.0698,1.0697,1.069,1.0672,1.0692,1.0721,1.0722,1.0684,1.0685,1.0685,0,1.127,1.1209,1.1179,1.1157,1.1087,1.1073,1.1043,1.0994,1.0968,1.0927,1.0909,1.0864,1.0839,1.0804,1.0756,1.0748,1.0713,1.0692,1.069,1.0691,1.0685,1.0686,1.071,1.0672,1.0672,1.0672,1.0672,0,1.1288,1.1268,1.1198,1.1179,1.1154,1.1103,1.1079,1.1044,1.1,1.0973,1.0928,1.0903,1.0841,1.0808,1.077,1.0736,1.0725,1.0703,1.0693,1.0706,1.0709,1.069,1.0688,1.0672,1.0672,1.0672,1.0672,0,1.1333,1.1285,1.125,1.1186,1.1169,1.1153,1.1097,1.1077,1.1039,1.1004,1.0993,1.0933,1.0892,1.084,1.0782,1.0756,1.0725,1.0711,1.0742,1.0736,1.0737,1.0737,1.075,1.0748,1.0712,1.0713,1.0713,0,1.1347,1.1331,1.1265,1.1244,1.1215,1.1182,1.1156,1.1103,1.1077,1.102,1.1005,1.0961,1.0922,1.0857,1.0807,1.0762,1.0745,1.0752,1.0738,1.0751,1.0743,1.0745,1.0742,1.0756,1.0757,1.0757,1.0758,0,1.1378,1.1355,1.1319,1.1275,1.1245,1.1208,1.1168,1.1153,1.1092,1.1065,1.1022,1.0993,1.0933,1.0888,1.0836,1.0802,1.0769,1.0763,1.0759,1.0773,1.0792,1.078,1.0752,1.0762,1.0762,1.0762,1.0761,1.0761,1.1407,1.1389,1.134,1.1301,1.1266,1.123,1.1207,1.1166,1.113,1.1078,1.1049,1.1007,1.0956,1.0883,1.085,1.0815,1.0803,1.0799,1.0798,1.0797,1.0801,1.0798,1.0805,1.0805,1.0805,1.0805,1.0805,0,1.1434,1.1399,1.1364,1.1311,1.128,1.1253,1.1207,1.1182,1.1146,1.1102,1.1065,1.1015,1.0971,1.0917,1.0869,1.0851,1.0834,1.084,1.084,1.0833,1.0815,1.0822,1.0854,1.0854,1.0854,1.0854,1.0854,1.0854,1.1444,1.1412,1.1383,1.1332,1.1297,1.1257,1.1233,1.1198,1.1163,1.1109,1.1073,1.1039,1.099,1.0938,1.0895,1.088,1.0864,1.0874,1.0855,1.0839,1.0834,1.083,1.0836,1.0871,1.0871,1.0875,1.0875,1.0875]}]]